EDT,Max TemperatureF,Mean TemperatureF,Min TemperatureF,Max Dew PointF,MeanDew PointF,Min DewpointF,Max Humidity, Mean Humidity, Min Humidity, Max Sea Level PressureIn, Mean Sea Level PressureIn, Min Sea Level PressureIn, Max VisibilityMiles, Mean VisibilityMiles, Min VisibilityMiles, Max Wind SpeedMPH, Mean Wind SpeedMPH, Max Gust SpeedMPH,PrecipitationIn, CloudCover, Events, WindDirDegrees
2013-9-1,87,78,69,72,70,68,100,82,52,29.89,29.85,29.81,10,9,2,8,1,,0.00,2,Rain,216
2013-9-2,89,79,69,72,70,68,100,83,52,29.89,29.85,29.80,10,8,1,10,2,25,0.00,4,Rain,238
2013-9-3,80,70,59,68,61,55,100,76,44,30.10,29.98,29.88,10,8,0,8,1,,0.00,4,Fog,290
2013-9-4,80,68,55,63,57,54,100,79,42,30.18,30.14,30.09,10,7,0,6,0,,0.00,2,Fog,239
2013-9-5,86,70,55,68,60,54,100,76,45,30.22,30.17,30.14,10,8,0,7,0,,0.00,3,Fog,23
2013-9-6,80,66,51,59,51,43,94,65,26,30.27,30.21,30.15,10,10,5,5,2,,0.00,0,,53
2013-9-7,86,68,50,64,56,48,100,76,31,30.15,30.08,30.00,10,8,0,7,1,,0.00,2,Fog,230
2013-9-8,91,76,62,72,66,61,100,76,41,30.04,29.99,29.97,10,10,5,5,0,,0.00,4,,30
2013-9-9,91,78,64,72,67,63,100,77,43,30.10,30.06,30.02,10,7,0,8,1,,0.00,2,Fog,206
2013-9-10,95,82,69,73,70,68,94,77,47,30.19,30.14,30.08,10,7,4,10,2,,0.00,2,,214
2013-9-11,95,82,69,73,71,68,100,79,44,30.20,30.14,30.07,10,6,2,8,2,,0.00,2,,234
2013-9-12,86,75,64,73,69,63,100,87,62,30.07,29.97,29.86,10,6,0,8,2,16,0.00,3,Fog-Rain,227
2013-9-13,71,63,53,66,55,48,100,73,46,30.09,29.98,29.87,10,9,1,8,2,,0.00,6,Rain,319
2013-9-14,69,58,46,54,48,43,100,74,38,30.19,30.15,30.09,10,10,10,6,1,,0.00,1,,67
2013-9-15,78,61,44,63,53,45,100,79,44,30.20,30.14,30.08,10,9,0,8,1,,0.00,2,Fog,220
2013-9-16,71,63,55,61,58,54,100,82,57,30.30,30.21,30.09,10,9,2,8,1,,0.00,6,Rain,44
2013-9-17,77,64,51,59,53,46,100,75,34,30.36,30.29,30.22,10,10,7,10,2,17,0.00,0,,81
2013-9-18,68,60,53,63,58,52,100,88,68,30.22,30.19,30.13,10,8,3,5,1,,0.00,6,Rain,165
2013-9-19,73,68,64,70,66,63,100,91,83,30.16,30.11,30.04,10,7,2,5,1,,0.00,8,Rain,183
2013-9-20,87,76,64,70,67,64,100,79,46,30.06,29.97,29.85,10,7,0,9,1,9,0.00,4,Fog,223
2013-9-21,71,65,59,68,64,59,100,92,78,29.85,29.79,29.72,10,7,1,8,1,20,0.00,6,Rain,197
2013-9-22,68,59,50,59,52,48,100,81,56,30.04,29.95,29.85,10,10,0,6,1,,0.00,3,Fog,37
2013-9-23,68,55,42,50,46,43,100,77,43,30.16,30.10,30.04,10,9,1,9,1,,0.00,1,,53
2013-9-24,73,57,41,55,48,39,100,79,46,30.13,30.06,29.97,10,8,0,6,1,,0.00,1,Fog,89
2013-9-25,77,62,48,63,55,46,100,82,50,29.97,29.93,29.89,10,9,5,5,0,,0.00,1,,78
2013-9-26,82,68,53,63,57,52,100,79,39,30.10,30.01,29.94,10,7,0,5,0,,0.00,3,Fog,64
2013-9-27,80,63,46,61,52,45,100,76,30,30.20,30.15,30.10,10,9,2,5,0,,0.00,0,,101
2013-9-28,82,64,46,63,54,46,100,78,39,30.25,30.18,30.12,10,10,1,6,1,,0.00,1,,173
2013-9-29,80,66,53,64,57,52,100,83,51,30.13,30.09,30.03,10,10,2,7,1,,0.00,4,,219
2013-9-30,77,68,59,63,60,57,100,87,57,30.09,30.05,30.01,10,8,1,4,0,,0.00,5,Rain,171